Airport Information

KYKM - Yakima Air Terminal McAllister Field Airport

KYKM 171353Z 34008KT 10SM CLR 23/08 A3003 RMK AO2 LTG DSNT NE SLP161 FU HZ ALQDS T02280078


  • General Information

  • Coordinates: N 46°34'5"/ W 120°32'38"
  • Location: N/A
  • Surveyed Elevation: 1095 MSL

Operations

Flow Name Active Runways Conditions

Green background denotes normal operations.


Common Frequencies

Callsign Frequency Position Name

More at the Document Center


Charts

Under Construction